* Astronomy

Members Login
Post Info TOPIC: Asteroid 2013 JX14


L

Posts: 131433
Date:
Asteroid 2013 JX14
Permalink  
 


Orbital elements:
2013 JX14
Epoch 2013 Apr. 18.0 TT = JDT 2456400.5                 MPC
M 348.39889              (2000.0)            P               Q
n   0.01577073     Peri.   17.90681     -0.04301789     +0.98867145
a  15.7483415      Node   249.82305     -0.93435052     -0.09077533
e   0.5416487      Incl.    8.81247     -0.35374931     +0.11953497
P  62.5            H   12.0           G   0.15
From 15 observations 2013 May 5-8.

MPEC 2013 - J39

Key to Orbital elements

Ed ~ 11 - 24 km wide



__________________
Page 1 of 1  sorted by
Quick Reply

Please log in to post quick replies.



Create your own FREE Forum
Report Abuse
Powered by ActiveBoard